QPF
0.00 0.00 0.01 0.02 0.01 0.00 0.00 0.00 0.00 0.00 0.00 0.00 0.00 0.00 0.00 0.00 0.00 0.00 0.00 0.00 0.00 0.00
0.00 0.01 0.02 0.02 0.01 0.00 0.00 0.00 0.00 0.00 0.00 0.00 0.00 0.00 0.00 0.00 0.00 0.00 0.00 0.00 0.00 0.00
0.00 0.01 0.01 0.01 0.00 0.00 0.00 0.00 0.00 0.00 0.00 0.00 0.00 0.00 0.00 0.00 0.00 0.00 0.00 0.00 0.00 0.00
0.00 0.01 0.01 0.00 0.00 0.00 0.00 0.00 0.00 0.00 0.00 0.00 0.00 0.00 0.00 0.00 0.00 0.00 0.00 0.00 0.00 0.00
0.00 0.00 0.00 0.00 0.00 0.00 0.00 0.00 0.00 0.00 0.00 0.00 0.00 0.00 0.00 0.00 0.00 0.00 0.00 0.00 0.00 0.00
0.00 0.00 0.00 0.00 0.00 0.00 0.00 0.00 0.00 0.00 0.00 0.00 0.00 0.00 0.00 0.00 0.00 0.00 0.00 0.00 0.00 0.00
0.00 0.00 0.00 0.00 0.00 0.00 0.00 0.00 0.00 0.00 0.00 0.00 0.00 0.00 0.00 0.00 0.00 0.00 0.00 0.00 0.00 0.00
0.01 0.01 0.00 0.00 0.00 0.00 0.00 0.00 0.00 0.00 0.00 0.00 0.00 0.00 0.00 0.00 0.00 0.00 0.00 0.00 0.00 0.00
0.01 0.01 0.01 0.00 0.00 0.00 0.00 0.00 0.00 0.00 0.00 0.00 0.00 0.00 0.00 0.00 0.00 0.00 0.00 0.00 0.00 0.00
0.05 0.02 0.01 0.00 0.00 0.00 0.00 0.00 0.00 0.00 0.00 0.00 0.00 0.00 0.00 0.00 0.00 0.00 0.00 0.00 0.00 0.00
0.16 0.03 0.00 0.00 0.00 0.00 0.00 0.00 0.00 0.00 0.00 0.00 0.00 0.00 0.00 0.00 0.00 0.00 0.00 0.00 0.00 0.00
0.05 0.00 0.00 0.00 0.00 0.00 0.00 0.00 0.00 0.00 0.00 0.00 0.00 0.00 0.00 0.00 0.00 0.00 0.00 0.00 0.00 0.00
0.00 0.00 0.00 0.00 0.00 0.00 0.00 0.00 0.00 0.00 0.00 0.00 0.00 0.00 0.00 0.00 0.00 0.00 0.00 0.00 0.00 0.00
0.00 0.00 0.00 0.00 0.00 0.00 0.00 0.00 0.00 0.00 0.00 0.00 0.00 0.00 0.00 0.00 0.00 0.00 0.00 0.00 0.00 0.00
MSLP
1007.77 1009.48 1010.79 1011.68 1012.56 1013.06 1013.79 1014.66 1015.32 1015.95 1016.78 1017.38 1017.76 1018.29 1018.67 1019.19 1019.51 1019.84 1020.10 1020.30 1020.54 1020.68
1007.79 1009.05 1010.33 1011.50 1012.47 1013.02 1013.62 1014.52 1015.39 1016.02 1016.77 1017.31 1017.81 1018.28 1018.71 1019.17 1019.45 1019.70 1019.92 1020.17 1020.40 1020.54
1007.81 1008.74 1010.05 1011.32 1012.09 1012.62 1013.56 1014.43 1015.41 1016.03 1016.82 1017.32 1017.91 1018.39 1018.84 1019.16 1019.39 1019.67 1019.86 1020.00 1020.22 1020.41
1007.98 1008.84 1009.98 1011.07 1011.75 1012.66 1013.45 1014.57 1015.55 1016.13 1016.87 1017.27 1017.86 1018.32 1018.69 1018.94 1019.28 1019.51 1019.74 1019.88 1020.09 1020.38
1008.11 1008.87 1010.02 1011.05 1011.94 1012.79 1013.73 1014.86 1015.67 1016.36 1016.94 1017.43 1017.96 1018.40 1018.75 1018.99 1019.23 1019.43 1019.65 1019.78 1020.01 1020.32
1008.41 1009.27 1010.31 1011.35 1012.24 1013.21 1014.18 1015.26 1015.89 1016.57 1017.17 1017.72 1018.21 1018.55 1018.89 1019.14 1019.33 1019.52 1019.59 1019.63 1019.83 1020.04
1008.93 1009.84 1010.73 1011.72 1012.70 1013.62 1014.65 1015.55 1016.24 1016.96 1017.44 1017.97 1018.44 1018.81 1019.10 1019.32 1019.47 1019.58 1019.54 1019.49 1019.53 1019.62
1009.51 1010.40 1011.36 1012.27 1013.35 1014.26 1015.10 1015.89 1016.46 1017.14 1017.82 1018.34 1018.69 1019.15 1019.45 1019.62 1019.72 1019.69 1019.58 1019.49 1019.35 1019.33
1010.23 1011.17 1012.07 1012.91 1014.07 1014.86 1015.75 1016.26 1016.78 1017.47 1017.91 1018.40 1018.90 1019.45 1019.61 1019.77 1019.85 1019.79 1019.68 1019.51 1019.30 1019.26
1011.79 1012.63 1012.86 1013.71 1014.70 1015.39 1016.19 1016.68 1017.28 1017.61 1018.15 1018.43 1019.17 1019.46 1019.70 1019.83 1019.86 1019.75 1019.56 1019.39 1019.17 1019.13
1012.46 1013.82 1014.13 1014.55 1015.57 1015.91 1016.40 1016.92 1017.31 1017.87 1018.30 1018.58 1019.21 1019.52 1019.69 1019.71 1019.71 1019.65 1019.42 1019.18 1018.98 1018.83
1014.11 1013.59 1014.80 1015.46 1016.11 1016.47 1016.73 1017.23 1017.61 1017.93 1018.39 1019.01 1019.37 1019.48 1019.49 1019.62 1019.75 1019.64 1019.41 1019.09 1018.79 1018.48
1013.92 1014.54 1015.32 1016.30 1016.60 1016.78 1017.14 1017.32 1017.80 1018.41 1018.76 1018.98 1019.21 1019.26 1019.43 1019.52 1019.56 1019.70 1019.42 1019.02 1018.71 1018.40
1014.73 1015.53 1016.27 1016.60 1016.81 1017.08 1017.50 1017.95 1018.43 1018.76 1018.85 1018.90 1019.06 1019.22 1019.14 1019.19 1019.35 1019.44 1019.23 1018.88 1018.49 1018.13
Thickness
5641 5628 5620 5615 5609 5607 5602 5596 5591 5584 5578 5571 5566 5560 5554 5548 5542 5536 5530 5526 5520 5515
5630 5623 5614 5607 5601 5599 5595 5589 5581 5577 5570 5564 5558 5551 5545 5538 5533 5527 5522 5516 5510 5505
5621 5617 5607 5600 5596 5594 5587 5581 5574 5568 5562 5556 5549 5541 5535 5529 5524 5518 5513 5508 5501 5494
5609 5605 5599 5594 5591 5585 5579 5571 5564 5559 5552 5547 5539 5533 5527 5522 5515 5509 5503 5497 5491 5484
5597 5597 5592 5586 5581 5575 5568 5561 5555 5548 5543 5536 5529 5523 5517 5511 5505 5499 5493 5486 5480 5472
5587 5585 5581 5575 5570 5564 5558 5549 5544 5538 5531 5525 5519 5512 5506 5500 5494 5487 5482 5476 5469 5461
5576 5574 5571 5566 5560 5554 5545 5538 5533 5526 5520 5513 5507 5500 5494 5487 5481 5475 5470 5465 5458 5450
5566 5563 5560 5554 5547 5541 5534 5528 5523 5515 5507 5501 5495 5487 5480 5474 5469 5464 5458 5452 5446 5439
5556 5552 5546 5542 5534 5528 5521 5517 5511 5504 5498 5491 5483 5474 5469 5463 5456 5451 5445 5440 5433 5424
5533 5531 5532 5530 5523 5518 5511 5506 5499 5493 5487 5482 5470 5465 5458 5452 5445 5439 5433 5426 5420 5412
5514 5510 5518 5518 5512 5507 5502 5495 5490 5484 5476 5470 5461 5454 5447 5442 5434 5427 5421 5414 5408 5399
5509 5517 5509 5504 5500 5493 5491 5486 5479 5473 5466 5457 5450 5444 5437 5430 5421 5414 5408 5402 5394 5388
5506 5506 5499 5489 5486 5485 5480 5476 5469 5461 5454 5447 5439 5435 5427 5418 5410 5403 5397 5389 5380 5372
5496 5489 5484 5482 5479 5475 5470 5464 5456 5449 5443 5438 5430 5421 5416 5409 5399 5390 5384 5376 5368 5359